TimeEDT,TemperatureF,Dew PointF,Humidity,Sea Level PressureIn,VisibilityMPH,Wind Direction,Wind SpeedMPH,Gust SpeedMPH,PrecipitationIn,Events,Conditions,WindDirDegrees,DateUTC
12:15 AM,62.6,60.8,94,30.10,10.0,Calm,Calm,-,N/A,,Mostly Cloudy,0,2013-05-18 04:15:00
12:35 AM,62.6,60.8,94,30.10,10.0,Calm,Calm,-,N/A,,Mostly Cloudy,0,2013-05-18 04:35:00
12:55 AM,64.4,60.8,88,30.10,10.0,Calm,Calm,-,N/A,,Mostly Cloudy,0,2013-05-18 04:55:00
1:15 AM,62.6,60.8,94,30.10,10.0,Calm,Calm,-,N/A,,Mostly Cloudy,0,2013-05-18 05:15:00
1:35 AM,62.6,60.8,94,30.09,10.0,Calm,Calm,-,N/A,,Mostly Cloudy,0,2013-05-18 05:35:00
1:55 AM,64.4,60.8,88,30.09,10.0,Calm,Calm,-,N/A,,Mostly Cloudy,0,2013-05-18 05:55:00
2:15 AM,62.6,60.8,94,30.09,10.0,Calm,Calm,-,N/A,,Scattered Clouds,0,2013-05-18 06:15:00
2:35 AM,62.6,60.8,94,30.09,10.0,Calm,Calm,-,N/A,,Scattered Clouds,0,2013-05-18 06:35:00
2:55 AM,62.6,60.8,94,30.09,10.0,Calm,Calm,-,N/A,,Scattered Clouds,0,2013-05-18 06:55:00
3:15 AM,62.6,60.8,94,30.08,10.0,Calm,Calm,-,N/A,,Clear,0,2013-05-18 07:15:00
3:35 AM,62.6,60.8,94,30.08,10.0,Calm,Calm,-,N/A,,Clear,0,2013-05-18 07:35:00
3:55 AM,62.6,60.8,94,30.09,10.0,Calm,Calm,-,N/A,,Clear,0,2013-05-18 07:55:00
4:15 AM,62.6,60.8,94,30.09,10.0,Calm,Calm,-,N/A,,Clear,0,2013-05-18 08:15:00
4:35 AM,60.8,60.8,100,30.09,10.0,Calm,Calm,-,N/A,,Clear,0,2013-05-18 08:35:00
4:55 AM,60.8,59.0,94,30.09,7.0,Calm,Calm,-,N/A,,Clear,0,2013-05-18 08:55:00
5:15 AM,60.8,59.0,94,30.10,7.0,Calm,Calm,-,N/A,,Scattered Clouds,0,2013-05-18 09:15:00
5:35 AM,59.0,59.0,100,30.10,5.0,Calm,Calm,-,N/A,,Scattered Clouds,0,2013-05-18 09:35:00
5:55 AM,59.0,59.0,100,30.10,7.0,Calm,Calm,-,N/A,,Scattered Clouds,0,2013-05-18 09:55:00
6:15 AM,59.0,59.0,100,30.10,7.0,Calm,Calm,-,N/A,,Clear,0,2013-05-18 10:15:00
6:35 AM,59.0,57.2,94,30.11,4.0,Calm,Calm,-,N/A,,Scattered Clouds,0,2013-05-18 10:35:00
6:55 AM,59.0,59.0,100,30.12,5.0,Calm,Calm,-,N/A,,Scattered Clouds,0,2013-05-18 10:55:00
7:15 AM,60.8,60.8,100,30.12,10.0,Calm,Calm,-,N/A,,Mostly Cloudy,0,2013-05-18 11:15:00
7:35 AM,62.6,60.8,94,30.13,10.0,Calm,Calm,-,N/A,,Overcast,0,2013-05-18 11:35:00
7:55 AM,62.6,60.8,94,30.13,10.0,Calm,Calm,-,N/A,,Overcast,0,2013-05-18 11:55:00
8:15 AM,64.4,62.6,94,30.14,10.0,Calm,Calm,-,N/A,,Mostly Cloudy,0,2013-05-18 12:15:00
8:35 AM,64.4,62.6,94,30.14,10.0,Calm,Calm,-,N/A,Rain,Light Rain,0,2013-05-18 12:35:00
8:55 AM,64.4,62.6,94,30.14,7.0,Calm,Calm,-,N/A,Rain,Light Rain,0,2013-05-18 12:55:00
9:15 AM,64.4,62.6,94,30.15,7.0,Calm,Calm,-,N/A,,Light Drizzle,0,2013-05-18 13:15:00
9:35 AM,64.4,62.6,94,30.15,10.0,Calm,Calm,-,N/A,,Mostly Cloudy,0,2013-05-18 13:35:00
9:55 AM,66.2,62.6,88,30.16,10.0,WSW,4.6,-,N/A,Rain,Rain,250,2013-05-18 13:55:00
10:15 AM,64.4,60.8,88,30.17,7.0,WSW,3.5,-,0.01,Rain,Light Rain,250,2013-05-18 14:15:00
10:35 AM,64.4,62.6,94,30.16,4.0,West,3.5,-,0.08,Rain,Rain,270,2013-05-18 14:35:00
10:55 AM,64.4,62.6,94,30.16,7.0,Calm,Calm,-,0.09,Rain,Light Rain,0,2013-05-18 14:55:00
11:15 AM,64.4,62.6,94,30.16,10.0,Calm,Calm,-,N/A,,Drizzle,0,2013-05-18 15:15:00
11:35 AM,64.4,62.6,94,30.16,7.0,Calm,Calm,-,N/A,Rain,Light Rain,0,2013-05-18 15:35:00
11:55 AM,64.4,62.6,94,30.16,7.0,Calm,Calm,-,0.01,Rain,Rain,0,2013-05-18 15:55:00
12:15 PM,66.2,64.4,94,30.15,7.0,Calm,Calm,-,N/A,,Light Drizzle,0,2013-05-18 16:15:00
12:35 PM,66.2,64.4,94,30.15,5.0,Calm,Calm,-,N/A,Rain,Rain,0,2013-05-18 16:35:00
12:55 PM,66.2,64.4,94,30.15,5.0,Calm,Calm,-,N/A,Rain,Rain,0,2013-05-18 16:55:00
1:15 PM,66.2,64.4,94,30.15,5.0,Calm,Calm,-,0.01,Rain,Light Rain,0,2013-05-18 17:15:00
1:35 PM,68.0,64.4,88,30.14,7.0,East,4.6,-,0.01,Rain,Rain,80,2013-05-18 17:35:00
1:55 PM,68.0,64.4,88,30.14,7.0,Calm,Calm,-,0.01,,Drizzle,0,2013-05-18 17:55:00
2:15 PM,68.0,64.4,88,30.14,10.0,Calm,Calm,-,N/A,,Light Drizzle,0,2013-05-18 18:15:00
2:35 PM,68.0,64.4,88,30.13,7.0,South,3.5,-,N/A,,Drizzle,180,2013-05-18 18:35:00
2:55 PM,68.0,64.4,88,30.13,7.0,ESE,3.5,-,N/A,Rain,Rain,120,2013-05-18 18:55:00
3:15 PM,68.0,64.4,88,30.12,7.0,Calm,Calm,-,N/A,Rain,Rain,0,2013-05-18 19:15:00
3:35 PM,66.2,64.4,94,30.12,7.0,Calm,Calm,-,N/A,Rain,Rain,0,2013-05-18 19:35:00
3:55 PM,66.2,64.4,94,30.12,2.0,Calm,Calm,-,0.06,Rain,Heavy Rain,0,2013-05-18 19:55:00
4:15 PM,66.2,64.4,94,30.12,2.0,Calm,Calm,-,0.05,Rain,Rain,0,2013-05-18 20:15:00
4:35 PM,68.0,64.4,88,30.11,5.0,Calm,Calm,-,0.06,Rain,Rain,0,2013-05-18 20:35:00
4:55 PM,68.0,64.4,88,30.10,5.0,Calm,Calm,-,0.06,Rain,Light Rain,0,2013-05-18 20:55:00
5:15 PM,68.0,64.4,88,30.10,10.0,Calm,Calm,-,N/A,Rain,Rain,0,2013-05-18 21:15:00
5:35 PM,68.0,64.4,88,30.10,10.0,Calm,Calm,-,N/A,,Mostly Cloudy,0,2013-05-18 21:35:00
5:55 PM,69.8,64.4,83,30.10,10.0,NE,3.5,-,N/A,,Scattered Clouds,50,2013-05-18 21:55:00
6:15 PM,69.8,64.4,83,30.10,10.0,Calm,Calm,-,N/A,,Mostly Cloudy,0,2013-05-18 22:15:00
6:35 PM,68.0,64.4,88,30.10,10.0,Calm,Calm,-,N/A,,Mostly Cloudy,0,2013-05-18 22:35:00
6:55 PM,68.0,64.4,88,30.10,10.0,Calm,Calm,-,N/A,,Overcast,0,2013-05-18 22:55:00
7:15 PM,68.0,64.4,88,30.10,7.0,Calm,Calm,-,N/A,,Overcast,0,2013-05-18 23:15:00
7:35 PM,68.0,66.2,94,30.10,7.0,Calm,Calm,-,N/A,Rain,Light Rain,0,2013-05-18 23:35:00
7:55 PM,68.0,64.4,88,30.11,7.0,Calm,Calm,-,N/A,,Light Drizzle,0,2013-05-18 23:55:00
8:15 PM,68.0,64.4,88,30.11,10.0,Calm,Calm,-,N/A,,Overcast,0,2013-05-19 00:15:00
8:35 PM,66.2,64.4,94,30.11,10.0,Calm,Calm,-,N/A,,Overcast,0,2013-05-19 00:35:00
8:55 PM,66.2,64.4,94,30.11,10.0,Calm,Calm,-,N/A,,Overcast,0,2013-05-19 00:55:00
9:15 PM,66.2,64.4,94,30.10,10.0,Calm,Calm,-,N/A,,Overcast,0,2013-05-19 01:15:00
9:35 PM,64.4,64.4,100,30.11,7.0,Calm,Calm,-,N/A,,Overcast,0,2013-05-19 01:35:00
9:55 PM,66.2,64.4,94,30.11,7.0,Calm,Calm,-,N/A,,Overcast,0,2013-05-19 01:55:00
10:15 PM,64.4,64.4,100,30.11,7.0,Calm,Calm,-,N/A,,Overcast,0,2013-05-19 02:15:00
10:35 PM,66.2,64.4,94,30.11,7.0,Calm,Calm,-,N/A,,Overcast,0,2013-05-19 02:35:00
10:55 PM,64.4,64.4,100,30.11,7.0,Calm,Calm,-,N/A,,Overcast,0,2013-05-19 02:55:00
11:15 PM,64.4,64.4,100,30.11,5.0,Calm,Calm,-,N/A,,Overcast,0,2013-05-19 03:15:00
11:35 PM,64.4,64.4,100,30.11,7.0,Calm,Calm,-,N/A,,Overcast,0,2013-05-19 03:35:00
11:55 PM,64.4,64.4,100,30.11,7.0,Calm,Calm,-,N/A,,Overcast,0,2013-05-19 03:55:00